sat.trackr.live / text

‹ back to catalog

STARLINK-3308

NORAD 50846 · 2022-001AV

PAYLOAD ACTIVE UNKNOWN

§ Identity

Operator
Country
US
Launch date
2022-01-06
Launch site
AFETR
Launch vehicle
Mass (kg)
RCS (m²)

Purposes: comms

External: N2YO · Heavens-Above · Gunter

§ Orbital elements

Epoch: 2026-09-20T00:09:30.388608Z

Period
94.01 min
Inclination
53.1614°
Eccentricity
0.0001062
Mean motion
15.31703239 rev/d
Perigee alt
470.0 km
Apogee alt
471.5 km
Semi-major
6,848.9 km
B*
4.2221e-5
RAAN
12.0904°
Arg perigee
86.5136°
Mean anomaly
273.5986°
Rev number
25,980

§ Raw data

STARLINK-33081 50846U 22001AV  26263.00660172  .00000945  00000+0  42221-4 0  99912 50846  53.1614  12.0904 0001062  86.5136 273.5986 15.31703239259807

JSON: /api/v1/satellites/50846 · /tle

For live sub-satellite position, see the globe view (requires WebGL).

§ Visibility from observer

Set your observer location to see the next 7 days of passes ≥ 10°. The values pass through the URL so the page stays shareable.

No JS? Fill the form by hand. The geolocation button needs JavaScript.